DateTimeUTC,F1_A11,F1_S11,BsB_S11,BsG_S11,BsR_S11,BbsB_S11,BbsG_S11,BbsR_S11,BaB_A11,BaG_A11,BaR_A11,Tu_S11,T_S11,Uu_S11,U_S11,P_S11,T1_A11
2021-10-28T17:00:00Z,00000200,21000000,,,,,,,-000.14,0000.03,-000.09,18.6,25.7,,00.0,0648.5,31.1
2021-10-28T17:01:00Z,00000200,21000000,,,,,,,-000.08,-000.31,-000.29,18.7,25.8,,00.0,0648.5,31.2
2021-10-28T17:02:00Z,00000200,21000000,,,,,,,-000.19,-000.03,0000.04,18.7,25.8,,00.0,0648.5,31.2
2021-10-28T17:03:00Z,00000200,61000000,,,,,,,-000.49,-000.52,-000.23,18.7,25.8,,00.0,0648.5,31.1
2021-10-28T17:04:00Z,00000200,41000000,-000.58,-000.04,-000.30,0000.18,0000.08,-000.06,0000.07,-000.25,0000.09,19.0,25.7,,00.0,0649.4,31.1
2021-10-28T17:05:00Z,00000200,01000000,0000.26,-000.18,0000.03,0000.20,0000.04,0000.02,-000.13,0000.34,-000.33,18.9,25.6,,00.0,0649.5,31.1
2021-10-28T17:06:00Z,00000200,01000000,-000.62,0000.11,0000.15,0000.12,0000.17,0000.11,0000.25,-000.19,-000.08,18.8,25.6,,00.0,0649.5,31.1
2021-10-28T17:07:00Z,00000200,01000000,-000.66,0000.09,-000.19,0000.05,0000.15,0000.10,0000.06,0000.23,0000.15,18.8,25.5,,00.0,0649.4,31.1
2021-10-28T17:08:00Z,00000200,01000000,0000.40,0000.01,0000.02,-000.31,-000.03,0000.23,-000.01,0000.06,-000.11,18.7,25.5,,00.0,0649.4,31.1
2021-10-28T17:09:00Z,00000200,01000000,-000.04,0000.19,-000.21,0000.68,0000.10,0000.14,0000.33,-000.00,0000.53,18.6,25.4,,00.0,0649.4,31.1
2021-10-28T17:10:00Z,00000200,01000000,-000.36,0000.19,-000.22,0000.64,0000.01,0000.20,-000.07,-000.40,-000.07,18.5,25.4,,00.0,0649.4,31.1
2021-10-28T17:11:00Z,00000200,01000000,-000.25,0000.32,-000.25,-000.37,0000.46,-000.13,0000.11,0000.33,-000.54,18.5,25.4,,00.0,0649.4,31.0
2021-10-28T17:12:00Z,00000200,01000000,-000.52,0000.23,-000.19,0000.61,0000.33,-000.18,-000.24,-000.04,0000.33,18.5,25.3,,00.0,0649.4,31.1
2021-10-28T17:13:00Z,00000200,01000000,0000.56,-000.03,-000.24,-000.03,0000.45,0000.25,-000.10,0000.25,0000.12,18.5,25.3,,00.0,0649.3,31.1
2021-10-28T17:14:00Z,00000200,01000000,0000.04,-000.00,0000.03,0000.03,-000.16,0000.37,0000.11,0000.34,-000.09,18.6,25.4,,00.0,0649.3,31.1
2021-10-28T17:15:00Z,00000200,01000000,0000.21,0000.05,0000.11,0000.63,-000.02,0000.09,0000.35,-000.41,0000.32,18.7,25.4,,00.0,0649.3,31.1
2021-10-28T17:16:00Z,00000200,01000000,-000.01,0000.33,-000.08,0000.60,-000.05,0000.05,0000.06,-000.02,-000.01,18.7,25.4,,00.0,0649.3,31.1
2021-10-28T17:17:00Z,00000200,01000000,0000.62,0000.33,-000.09,-000.14,0000.11,-000.27,0000.28,0000.58,0000.02,18.8,25.4,,00.0,0649.3,31.1
2021-10-28T17:18:00Z,00000200,01000000,0000.13,0000.44,0000.04,0000.06,0000.04,-000.16,-000.16,0000.15,0000.05,18.8,25.5,,00.0,0649.3,31.1
2021-10-28T17:19:00Z,00000200,01000000,-000.19,0000.03,-000.38,-000.24,-000.02,-000.07,0000.01,-000.23,0000.06,18.9,25.5,,00.0,0649.3,31.1
2021-10-28T17:20:00Z,00000200,01000000,-000.00,0000.40,-000.07,0000.49,-000.07,-000.02,0000.13,0000.10,0000.11,18.9,25.5,,00.0,0649.3,31.1
2021-10-28T17:21:00Z,00000200,01000000,-000.23,-000.06,0000.11,-000.61,0000.18,-000.16,0000.00,0000.04,-000.11,18.8,25.5,,00.0,0649.3,31.1
2021-10-28T17:22:00Z,00000200,01000000,-000.11,0000.26,-000.03,0000.79,0000.20,0000.31,0000.13,0000.18,0000.01,18.8,25.4,,00.0,0649.3,31.1
2021-10-28T17:23:00Z,00000200,01000000,-000.10,0000.00,-000.05,0000.65,0000.27,0000.23,0000.49,-000.25,0000.18,18.7,25.4,,00.0,0649.3,31.1
2021-10-28T17:24:00Z,00000200,01000000,-000.59,0000.14,-000.03,0000.22,0000.15,-000.17,-000.03,0000.44,-000.03,18.6,25.3,,00.0,0649.3,31.0
2021-10-28T17:25:00Z,00000200,01000000,0000.07,0000.01,0000.18,0000.08,-000.11,0000.33,-000.24,-000.33,0000.03,18.5,25.3,,00.0,0649.3,31.0
2021-10-28T17:26:00Z,00000200,01000000,-000.42,0000.28,-000.07,0000.37,-000.02,0000.20,-000.20,-000.25,-000.00,18.5,25.2,,00.0,0649.3,31.1
2021-10-28T17:27:00Z,00000200,01000000,0000.24,0000.26,-000.16,-000.36,0000.05,0000.39,0000.27,0000.32,0000.28,18.5,25.2,,00.0,0649.3,31.1
2021-10-28T17:28:00Z,00000200,01000000,0000.22,0000.14,0000.08,0000.28,-000.03,0000.00,0000.15,0000.33,-000.36,18.5,25.2,,00.0,0649.3,31.1
2021-10-28T17:29:00Z,00000200,01000000,-000.36,-000.21,0000.13,0000.25,-000.00,-000.03,0000.18,-000.12,0000.36,18.5,25.3,,00.0,0649.3,31.1
2021-10-28T17:30:00Z,00000200,01000000,-000.11,0000.05,-000.00,0000.62,0000.46,0000.13,-000.10,0000.22,0000.09,18.6,25.3,,00.0,0649.3,31.1
2021-10-28T17:31:00Z,00000200,01000000,-000.09,-000.10,-000.02,-000.14,-000.13,0000.18,0000.38,-000.02,0000.06,18.6,25.3,,00.0,0649.3,31.1
2021-10-28T17:32:00Z,00000200,01000000,-000.62,-000.12,-000.10,0000.21,0000.16,0000.33,-000.06,0000.28,0000.11,18.7,25.3,,00.0,0649.3,31.1
2021-10-28T17:33:00Z,00000200,01000000,0000.52,0000.21,0000.11,0000.55,0000.23,0000.05,0000.23,0000.02,0000.16,18.8,25.3,,00.0,0649.3,31.1
2021-10-28T17:34:00Z,00000200,01000000,-000.03,0000.18,0000.13,-000.07,-000.11,0000.00,-000.43,-000.32,0000.10,18.8,25.4,,00.0,0649.3,31.1
2021-10-28T17:35:00Z,00000200,01000000,0000.06,0000.24,0000.04,0000.15,0000.52,0000.08,0000.23,0000.36,-000.29,18.9,25.4,,00.0,0649.3,31.1
2021-10-28T17:36:00Z,00000200,01000000,0000.09,0000.15,-000.25,0000.50,-000.17,-000.08,0000.16,0000.12,0000.03,18.9,25.4,,00.0,0649.3,31.1
2021-10-28T17:37:00Z,00000200,01000000,-000.02,0000.10,-000.08,0000.32,-000.01,-000.22,-000.08,0000.20,-000.20,18.8,25.4,,00.0,0649.3,31.1
2021-10-28T17:38:00Z,00000200,01000000,0000.19,0000.13,-000.03,0000.18,-000.05,-000.10,-000.03,-000.24,0000.25,18.7,25.4,,00.0,0649.3,31.1
2021-10-28T17:39:00Z,00000200,01010000,-000.23,0000.15,-000.21,-000.15,0000.42,0000.11,0000.08,0000.03,-000.05,18.6,25.3,,00.0,0649.3,31.1
2021-10-28T17:40:00Z,00000200,01000000,0000.28,0000.03,-000.03,0000.44,-000.13,0000.41,0000.17,0000.23,-000.03,18.6,25.3,,00.0,0649.3,31.1
2021-10-28T17:41:00Z,00000200,01000000,0000.12,0000.13,-000.03,0000.47,0000.33,-000.20,-000.06,-000.04,-000.12,18.5,25.3,,00.0,0649.3,31.1
2021-10-28T17:42:00Z,00000200,01000000,-000.81,0000.18,-000.02,0000.61,0000.32,0000.52,0000.20,-000.03,0000.26,18.5,25.2,,00.0,0649.3,31.1
2021-10-28T17:43:00Z,00000200,01000000,-000.38,-000.14,0000.05,0000.07,-000.00,0000.07,0000.07,0000.04,0000.02,18.5,25.2,,00.0,0649.3,31.1
2021-10-28T17:44:00Z,00000200,01000000,0000.22,0000.05,0000.18,-000.10,0000.07,0000.31,-000.01,0000.28,0000.13,18.6,25.3,,00.0,0649.3,31.1
2021-10-28T17:45:00Z,00000200,01000000,-000.11,-000.12,-000.13,0000.24,0000.07,-000.15,-000.01,-000.06,0000.06,18.6,25.3,,00.0,0649.3,31.1
2021-10-28T17:46:00Z,00000200,01000000,-000.39,0000.16,-000.21,0000.41,-000.18,-000.05,-000.04,-000.26,-000.03,18.7,25.3,,00.0,0649.3,31.1
2021-10-28T17:47:00Z,00000200,01000000,-000.43,0000.14,-000.04,0000.48,0000.20,0000.16,0000.05,0000.17,0000.06,18.8,25.3,,00.0,0649.3,31.1
2021-10-28T17:48:00Z,00000200,01000000,0000.17,0000.07,0000.05,-000.32,-000.05,-000.18,0000.30,0000.05,-000.26,18.8,25.4,,00.0,0649.3,31.1
2021-10-28T17:49:00Z,00000200,01000000,0000.87,0000.14,-000.01,0000.81,-000.09,0000.44,-000.13,0000.20,0000.12,18.8,25.4,,00.0,0649.3,31.1
2021-10-28T17:50:00Z,00000200,01000000,-000.36,0000.34,-000.28,0000.09,0000.30,0000.12,-000.02,-000.42,-000.13,18.8,25.4,,00.0,0649.3,31.1
2021-10-28T17:51:00Z,00000200,01000000,0000.29,-000.11,-000.11,0000.51,0000.04,0000.16,0000.15,0000.28,0000.14,18.7,25.4,,00.0,0649.3,31.1
2021-10-28T17:52:00Z,00000200,01000000,-000.25,0000.19,0000.10,0000.47,0000.17,-000.08,-000.24,0000.01,-000.05,18.6,25.3,,00.0,0649.4,31.1
2021-10-28T17:53:00Z,00000200,01000000,0000.19,0000.19,-000.20,0000.29,0000.07,-000.43,0000.26,0000.04,0000.01,18.5,25.3,,00.0,0649.4,31.1
2021-10-28T17:54:00Z,00000200,01000000,-000.28,0000.22,0000.34,-000.02,0000.51,0000.14,0000.27,0000.10,0000.28,18.4,25.2,,00.0,0649.3,31.0
2021-10-28T17:55:00Z,00000200,01000000,-000.37,0000.43,0000.03,0000.18,-000.03,0000.18,0000.17,0000.50,0000.03,18.4,25.2,,00.0,0649.3,31.0
2021-10-28T17:56:00Z,00000200,01000000,-000.13,0000.13,-000.22,-000.08,0000.04,0000.13,0000.11,-000.20,0000.27,18.3,25.1,,00.0,0649.3,31.0
2021-10-28T17:57:00Z,00000200,41000000,,,,,,,0000.83,0000.83,0000.50,18.3,25.0,,00.0,0649.3,31.0
2021-10-28T17:58:00Z,00000200,61000000,,,,,,,-000.45,-000.55,-000.30,18.1,25.3,,00.0,0648.3,31.1
2021-10-28T17:59:00Z,00000200,21000000,,,,,,,-000.16,-000.01,0000.04,18.1,25.4,,00.0,0648.3,31.1
